St. Paul, MN

2:52 PM CDT on May 29, 2017 (GMT -0500)
Saint Paul Downtown-Holman

Weather History for KSTP - July, 2013

Change the Weather History Date:

Saturday, July 20, 2013

  Actual Average Record
Temperature  
Mean Temperature 73 °F -  
Max Temperature 81 °F 80 °F 96 °F (2011)
Min Temperature 66 °F 62 °F 55 °F (2000)
Cooling Degree Days 8    
Growing Degree Days 23 (Base 50)    
Moisture  
Dew Point 59 °F    
Average Humidity 61    
Maximum Humidity 79    
Minimum Humidity 45    
Precipitation  
Precipitation 0.00 in - - ()
Sea Level Pressure  
Sea Level Pressure 29.91 in    
Wind  
Wind Speed 7 mph (NNE)    
Max Wind Speed 13 mph    
Max Gust Speed -    
Visibility 10 miles    
Events      
Averages and records for this station are not official NWS values.
T = Trace of Precipitation, MM = Missing Value Source: NWS Daily Summary

Daily Weather History Graph

Daily Weather History Graph

Search for Another Location

Airport or City:

Trip Planner

Search our weather history database for the weather conditions in past years. The results will help you decide how hot, cold, wet, or windy it might be!

Date:

Astronomy

Jul. 20, 2013 Rise Set
Actual Time 5:45 AM CDT 8:51 PM CDT
Civil Twilight 5:09 AM CDT 9:26 PM CDT
Nautical Twilight 4:24 AM CDT 10:11 PM CDT
Astronomical Twilight 3:29 AM CDT 11:06 PM CDT
Moon 6:54 PM CDT (7/20) 3:25 AM CDT (7/20)
Length of Visible Light 16h 16m
Length of Day
15h 06m
Waxing Gibbous, 94% of the Moon is Illuminated
Jul 20
Waxing Gibbous
Jul 22
Full
Jul 29
Last Quarter
Aug 6
New
Aug 14
First Quarter

Hourly Weather History & Observations

Time (CDT) Temp. Heat Index Dew Point Humidity Pressure Visibility Wind Dir Wind Speed Gust Speed Precip Events Conditions
12:53 AM 73.0 °F - 59.0 °F 61% 29.85 in 10.0 mi West 8.1 mph - N/A   Clear
1:53 AM 71.1 °F - 57.9 °F 63% 29.87 in 10.0 mi West 5.8 mph - N/A   Clear
2:53 AM 70.0 °F - 60.1 °F 71% 29.86 in 10.0 mi North 6.9 mph - 0.00 in   Scattered Clouds
3:53 AM 68.0 °F - 61.0 °F 78% 29.87 in 10.0 mi Calm Calm - N/A   Scattered Clouds
4:53 AM 66.9 °F - 59.0 °F 76% 29.87 in 10.0 mi NW 6.9 mph - N/A   Partly Cloudy
5:53 AM 66.9 °F - 60.1 °F 79% 29.88 in 10.0 mi WNW 9.2 mph - N/A   Partly Cloudy
6:53 AM 66.9 °F - 60.1 °F 79% 29.90 in 10.0 mi NW 10.4 mph - N/A   Scattered Clouds
7:53 AM 70.0 °F - 62.1 °F 76% 29.91 in 10.0 mi North 4.6 mph - N/A   Clear
8:53 AM 72.0 °F - 61.0 °F 68% 29.92 in 10.0 mi Variable 4.6 mph - N/A   Clear
9:53 AM 73.0 °F - 61.0 °F 66% 29.93 in 10.0 mi ENE 4.6 mph - N/A   Clear
10:53 AM 73.9 °F - 61.0 °F 64% 29.92 in 10.0 mi Calm Calm - N/A   Clear
11:53 AM 77.0 °F - 61.0 °F 58% 29.93 in 10.0 mi ENE 3.5 mph - N/A   Partly Cloudy
12:53 PM 79.0 °F - 61.0 °F 54% 29.92 in 10.0 mi North 9.2 mph - N/A   Scattered Clouds
1:53 PM 79.0 °F - 57.9 °F 48% 29.92 in 10.0 mi ENE 9.2 mph - N/A   Mostly Cloudy
2:53 PM 80.1 °F 80.4 °F 57.0 °F 45% 29.91 in 10.0 mi East 6.9 mph - N/A   Clear
3:53 PM 79.0 °F - 55.9 °F 45% 29.90 in 10.0 mi NNE 10.4 mph - N/A   Scattered Clouds
4:53 PM 79.0 °F - 55.9 °F 45% 29.91 in 10.0 mi Variable 6.9 mph - N/A   Mostly Cloudy
5:53 PM 80.1 °F 80.6 °F 57.9 °F 47% 29.89 in 10.0 mi Variable 6.9 mph - N/A   Clear
6:53 PM 78.1 °F - 57.9 °F 50% 29.90 in 10.0 mi NE 12.7 mph - N/A   Scattered Clouds
7:53 PM 73.9 °F - 57.0 °F 55% 29.91 in 10.0 mi North 10.4 mph - N/A   Scattered Clouds
8:53 PM 73.0 °F - 55.9 °F 55% 29.92 in 10.0 mi NNE 5.8 mph - N/A   Partly Cloudy
9:53 PM 72.0 °F - 55.9 °F 57% 29.93 in 10.0 mi ENE 5.8 mph - N/A   Mostly Cloudy
10:53 PM 71.1 °F - 55.9 °F 59% 29.95 in 10.0 mi East 3.5 mph - N/A   Scattered Clouds
11:53 PM 70.0 °F - 55.0 °F 59% 29.96 in 10.0 mi ENE 3.5 mph - N/A   Mostly Cloudy